Weather History for Ann Arbor, MI

Change the Weather History Date:

Thursday, May 2, 2013

  Actual Average Record
Temperature  
Mean Temperature 66 °F -  
Max Temperature 80 °F 65 °F 82 °F (2001)
Min Temperature 53 °F 40 °F 27 °F (2005)
Cooling Degree Days 1    
Growing Degree Days 16 (Base 50)    
Moisture  
Dew Point 49 °F    
Average Humidity 58    
Maximum Humidity 93    
Minimum Humidity 35    
Precipitation  
Precipitation 0.00 in - - ()
Sea Level Pressure  
Sea Level Pressure 30.20 in    
Wind  
Wind Speed 4 mph (SE)    
Max Wind Speed 14 mph    
Max Gust Speed 21 mph    
Visibility 10 miles    
Events      
Averages and records for this station are not official NWS values.
T = Trace of Precipitation, MM = Missing Value Source: NWS Daily Summary

Daily Weather History Graph

Daily Weather History Graph

Search for Another Location

Airport:

Trip Planner

Search our weather history database for the weather conditions in past years. The results will help you decide how hot, cold, wet, or windy it might be!

Date:

Astronomy

May. 02, 2013 Rise Set
Actual Time 6:28 AM EDT 8:35 PM EDT
Civil Twilight 5:58 AM EDT 9:06 PM EDT
Nautical Twilight 5:20 AM EDT 9:44 PM EDT
Astronomical Twilight 4:39 AM EDT 10:25 PM EDT
Moon 2:23 AM EDT (5/2) 1:16 PM EDT (5/2)
Length of Visible Light 15h 08m
Length of Day
14h 06m
Waning Gibbous, 48% of the Moon is Illuminated
May 2
Waning Gibbous
May 9
New
May 18
First Quarter
May 25
Full
May 31
Last Quarter

Hourly Weather History & Observations

Time (EDT) Temp. Dew Point Humidity Pressure Visibility Wind Dir Wind Speed Gust Speed Precip Events Conditions
12:53 AM 54.0 °F 52.0 °F 93% 30.24 in 10.0 mi Calm Calm - N/A   Clear
1:53 AM 57.0 °F 51.1 °F 81% 30.22 in 10.0 mi ENE 3.5 mph - N/A   Clear
2:53 AM 53.1 °F 48.9 °F 86% 30.22 in 10.0 mi Calm Calm - N/A   Clear
3:53 AM 54.0 °F 48.0 °F 80% 30.21 in 10.0 mi Calm Calm - N/A   Clear
4:53 AM 53.1 °F 48.0 °F 83% 30.22 in 10.0 mi Calm Calm - N/A   Clear
5:53 AM 53.1 °F 48.0 °F 83% 30.21 in 10.0 mi NE 3.5 mph - N/A   Clear
6:53 AM 54.0 °F 48.0 °F 80% 30.22 in 10.0 mi Calm Calm - N/A   Clear
7:53 AM 59.0 °F 48.0 °F 67% 30.24 in 10.0 mi East 8.1 mph - N/A   Clear
8:53 AM 63.0 °F 48.0 °F 58% 30.25 in 10.0 mi SE 5.8 mph - N/A   Clear
9:53 AM 68.0 °F 51.1 °F 55% 30.25 in 10.0 mi South 8.1 mph - N/A   Clear
10:53 AM 70.0 °F 52.0 °F 53% 30.24 in 10.0 mi SSE 9.2 mph - N/A   Clear
11:53 AM 73.9 °F 53.1 °F 48% 30.24 in 10.0 mi SSW 8.1 mph 17.3 mph N/A   Clear
12:53 PM 75.9 °F 53.1 °F 45% 30.22 in 10.0 mi South 9.2 mph 17.3 mph N/A   Clear
1:53 PM 75.0 °F 52.0 °F 44% 30.20 in 10.0 mi SSE 5.8 mph - N/A   Mostly Cloudy
2:53 PM 78.1 °F 54.0 °F 43% 30.19 in 10.0 mi SE 9.2 mph - N/A   Partly Cloudy
3:53 PM 79.0 °F 48.9 °F 35% 30.17 in 10.0 mi SE 11.5 mph 18.4 mph N/A   Clear
4:53 PM 77.0 °F 48.9 °F 37% 30.16 in 10.0 mi SE 11.5 mph 20.7 mph N/A   Clear
5:53 PM 75.0 °F 48.9 °F 40% 30.15 in 10.0 mi SE 11.5 mph - N/A   Clear
6:53 PM 73.0 °F 48.0 °F 41% 30.14 in 10.0 mi SE 13.8 mph 19.6 mph N/A   Clear
7:53 PM 71.1 °F 48.0 °F 44% 30.14 in 10.0 mi SE 9.2 mph - N/A   Clear
8:53 PM 66.9 °F 46.9 °F 49% 30.15 in 10.0 mi SE 8.1 mph - N/A   Clear
9:53 PM 64.0 °F 46.0 °F 52% 30.15 in 10.0 mi ESE 5.8 mph - N/A   Clear
10:53 PM 63.0 °F 44.1 °F 50% 30.15 in 10.0 mi East 4.6 mph - N/A   Scattered Clouds
11:53 PM 60.1 °F 43.0 °F 53% 30.14 in 10.0 mi Calm Calm - N/A   Clear